[[{"header":{"parameterUnit":"m.s-1","parameterCategory":1,"la1":30.2991,"la2":30.254,"lo1":-89.0895,"lo2":-89.0444,"dy":0.0017,"dx":0.0017,"nx":28,"ny":28,"refTime":"2023-10-31T09:00:00:Z","depth":0,"parameterNumber":2,"parameterNumberName":"U-component_of_WINDS"},"data":[0,0,0,0,0,0,0,0,0,0,0,0,0,0,0,0,0,0,0,0,0,0,0,0,0,0,0,0,0,0,0,0,0,0,0,0,0,0,0,0,0,0,0,0,0,0,0,0,0,0,0,0,0,0,0,0,0,0,-0.3092,-0.3093,0,-0.311,-0.3111,-0.3111,-0.3101,-0.31,-0.31,-0.3099,-0.3118,-0.3119,-0.312,0,0,0,0,0,0,0,0,0,0,0,0,0,-0.3049,-0.305,-0.3092,-0.3093,-0.3093,-0.311,-0.3111,-0.3111,-0.3101,-0.31,-0.31,-0.3099,-0.3118,-0.3119,-0.312,0,0,0,0,0,0,0,0,0,0,0,0,0,-0.3068,-0.305,-0.3092,-0.309,-0.309,-0.311,-0.3111,-0.3111,-0.3101,-0.31,-0.31,-0.3099,-0.3118,-0.3119,-0.312,-0.3144,0,0,-0.3125,-0.3125,0,0,0,0,0,0,0,0,-0.3067,-0.3069,-0.309,-0.309,-0.309,-0.3103,-0.3102,-0.3122,-0.3101,-0.3097,-0.3099,-0.3099,-0.3114,-0.3115,-0.312,-0.3145,-0.3146,-0.3125,-0.3126,-0.3126,-0.3127,0,0,0,0,0,0,0,-0.3065,-0.3069,-0.31,-0.3091,-0.3091,-0.3088,-0.309,-0.3106,-0.3109,-0.3097,-0.3097,-0.3099,-0.3114,-0.3119,-0.3121,-0.3146,-0.3125,-0.3126,-0.3127,-0.3128,-0.319,-0.3191,0,0,0,0,0,0,-0.3064,-0.3068,-0.3099,-0.31,-0.3076,-0.3089,-0.3091,-0.3099,-0.3109,-0.311,-0.3099,-0.3098,-0.3117,-0.3119,-0.3121,-0.315,-0.3126,-0.3128,-0.3129,-0.3189,-0.319,-0.3191,0,0,0,0,0,0,-0.3063,-0.3067,-0.3098,-0.3084,-0.3087,-0.3091,-0.31,-0.31,-0.3106,-0.3111,-0.3111,-0.3104,-0.3116,-0.3119,-0.3138,-0.315,-0.3128,-0.313,-0.3188,-0.319,-0.3191,-0.3206,0,0,0,0,0,0,-0.3062,-0.3067,-0.3076,-0.3084,-0.3088,-0.3115,-0.3101,-0.3101,-0.3108,-0.3107,-0.3116,-0.3116,-0.3116,-0.3136,-0.314,-0.3152,-0.3131,-0.3187,-0.3189,-0.319,-0.3205,-0.3208,-0.3211,0,0,0,0,0,-0.3061,-0.308,-0.3077,-0.3081,-0.31,-0.3116,-0.3118,-0.3118,-0.3109,-0.3118,-0.3121,-0.3116,-0.3148,-0.3138,-0.3142,-0.3155,-0.3187,-0.3189,-0.319,-0.3204,-0.3207,-0.3211,0,0,0,0,0,0,-0.3074,-0.3081,-0.3078,-0.31,-0.3107,-0.3114,-0.3126,-0.3122,-0.3132,-0.313,-0.3129,-0.3131,-0.3151,-0.3154,-0.3143,-0.3178,-0.3166,-0.3169,-0.3175,-0.3178,-0.3181,-0.318,-0.3132,0,0,0,0,0,-0.308,-0.3092,-0.3097,-0.3117,-0.3121,-0.3123,-0.313,-0.3128,-0.3136,-0.3139,-0.3143,-0.3151,-0.3163,-0.3171,-0.3182,-0.3205,-0.3207,-0.3215,-0.3218,-0.3221,-0.3223,-0.3235,-0.3239,-0.3197,-0.3197,-0.3197,0,0,-0.3091,-0.3097,-0.3105,-0.312,-0.3125,-0.3138,-0.3125,-0.314,-0.3149,-0.3141,-0.3159,-0.3163,-0.3171,-0.3192,-0.3202,-0.3196,-0.3235,-0.3223,-0.3225,-0.3226,-0.3238,-0.3242,-0.3245,-0.3198,-0.3198,-0.3198,0,0,-0.3119,-0.3125,-0.3141,-0.3147,-0.3155,-0.3156,-0.316,-0.3167,-0.3169,-0.3187,-0.3181,-0.3192,-0.3213,-0.3219,-0.3224,-0.3253,-0.3249,-0.3257,-0.3272,-0.3284,-0.3287,-0.329,-0.3301,-0.3304,-0.3259,-0.3259,-0.3259,0,-0.3133,-0.3152,-0.315,-0.3165,-0.3171,-0.3164,-0.3181,-0.3186,-0.3198,-0.3202,-0.3196,-0.322,-0.3226,-0.3248,-0.3255,-0.3259,-0.3264,-0.3256,-0.3287,-0.329,-0.3293,-0.3303,-0.3307,-0.326,-0.326,-0.326,-0.326,0,-0.3168,-0.3182,-0.3194,-0.3205,-0.3213,-0.3228,-0.3228,-0.3236,-0.3234,-0.3235,-0.3254,-0.3259,-0.3271,-0.3276,-0.3274,-0.3298,-0.3294,-0.3287,-0.3276,-0.3298,-0.3307,-0.3311,-0.3262,-0.3261,-0.3261,-0.3261,0,0,-0.3207,-0.3216,-0.322,-0.3225,-0.3233,-0.3243,-0.3258,-0.3269,-0.3276,-0.3284,-0.3296,-0.3313,-0.3306,-0.3313,-0.3311,-0.3321,-0.3344,-0.3313,-0.3313,-0.3319,-0.337,-0.3376,-0.338,-0.334,-0.3341,-0.3342,-0.3369,0,-0.3236,-0.3261,-0.3259,-0.3284,-0.3296,-0.3288,-0.3301,-0.3307,-0.3309,-0.3319,-0.3321,-0.3333,-0.3323,-0.3327,-0.3337,-0.3339,-0.3354,-0.3337,-0.3352,-0.3352,-0.3351,-0.3385,-0.3391,-0.3417,-0.3373,-0.3374,-0.3374,0,-0.3273,-0.3282,-0.3307,-0.3313,-0.3318,-0.3329,-0.3339,-0.3349,-0.3355,-0.3356,-0.3362,-0.3359,-0.3373,-0.336,-0.338,-0.3369,-0.3374,-0.3376,-0.3377,-0.3379,-0.3365,-0.3388,-0.3425,-0.343,-0.338,-0.3379,-0.3379,0,-0.3299,-0.3317,-0.3334,-0.3338,-0.3345,-0.3353,-0.3357,-0.3362,-0.3369,-0.3377,-0.3381,-0.3391,-0.3397,-0.3405,-0.3404,-0.3395,-0.3424,-0.3411,-0.3425,-0.3425,-0.3432,-0.3432,-0.3471,-0.3435,-0.3435,-0.3435,-0.3435,0,-0.3331,-0.3347,-0.3346,-0.3356,-0.3374,-0.3371,-0.3388,-0.339,-0.3395,-0.3406,-0.34,-0.3411,-0.3408,-0.3419,-0.3418,-0.3434,-0.3437,-0.3437,-0.3437,-0.3438,-0.3438,-0.3443,-0.3441,-0.3436,-0.3435,-0.3435,-0.3435,0,-0.3363,-0.3363,-0.3381,-0.3386,-0.3387,-0.34,-0.3404,-0.3414,-0.3414,-0.3428,-0.3431,-0.3432,-0.3444,-0.3443,-0.3456,-0.3456,-0.3476,-0.3473,-0.3474,-0.3474,-0.3487,-0.3486,-0.3532,-0.3537,-0.3497,-0.3497,-0.3497,0,-0.3385,-0.3397,-0.3402,-0.3409,-0.3413,-0.3424,-0.343,-0.3427,-0.3434,-0.3442,-0.3451,-0.3462,-0.3471,-0.349,-0.3491,-0.3501,-0.3499,-0.3514,-0.3501,-0.3501,-0.35,-0.3499,-0.35,-0.3517,-0.3518,-0.3518,-0.3518,0,-0.3422,-0.3421,-0.3431,-0.344,-0.3448,-0.3455,-0.3462,-0.3468,-0.3466,-0.3474,-0.3485,-0.3492,-0.3505,-0.3516,-0.3525,-0.3528,-0.3523,-0.3522,-0.3526,-0.3528,-0.3528,-0.3528,-0.3482,-0.3522,-0.3521,-0.3521,-0.3521,-0.3521,-0.345,-0.346,-0.3465,-0.3476,-0.3481,-0.3487,-0.3496,-0.3497,-0.3507,-0.3517,-0.3515,-0.3528,-0.3533,-0.3545,-0.3549,-0.3559,-0.3553,-0.3559,-0.356,-0.3562,-0.3563,-0.3525,-0.356,-0.356,-0.356,-0.356,-0.356,0,-0.3488,-0.3491,-0.35,-0.3509,-0.3518,-0.3511,-0.3518,-0.3525,-0.3537,-0.3542,-0.355,-0.3563,-0.3574,-0.3576,-0.3585,-0.3593,-0.3591,-0.3595,-0.3595,-0.3596,-0.3568,-0.3563,-0.3597,-0.3597,-0.3597,-0.3597,-0.3597,-0.3597,-0.3509,-0.3525,-0.3525,-0.3543,-0.3546,-0.3558,-0.3562,-0.3568,-0.3572,-0.3587,-0.3595,-0.3596,-0.36,-0.361,-0.3619,-0.3619,-0.3623,-0.3629,-0.3628,-0.3602,-0.3598,-0.3595,-0.3591,-0.363,-0.363,-0.3656,-0.3656,-0.3656]},{"header":{"parameterUnit":"m.s-1","parameterCategory":1,"la1":30.2991,"la2":30.254,"lo1":-89.0895,"lo2":-89.0444,"dy":0.0017,"dx":0.0017,"nx":28,"ny":28,"refTime":"2023-10-31T09:00:00:Z","depth":0,"parameterNumber":3,"parameterNumberName":"V-component_of_WINDS"},"data":[0,0,0,0,0,0,0,0,0,0,0,0,0,0,0,0,0,0,0,0,0,0,0,0,0,0,0,0,0,0,0,0,0,0,0,0,0,0,0,0,0,0,0,0,0,0,0,0,0,0,0,0,0,0,0,0,0,0,-6.9271,-6.9272,0,-6.9373,-6.9374,-6.9375,-6.9343,-6.9341,-6.9338,-6.9336,-6.9434,-6.9439,-6.9443,0,0,0,0,0,0,0,0,0,0,0,0,0,-6.9043,-6.9048,-6.9271,-6.9272,-6.9273,-6.9372,-6.9374,-6.9375,-6.9343,-6.9341,-6.9338,-6.9335,-6.9433,-6.9438,-6.9444,0,0,0,0,0,0,0,0,0,0,0,0,0,-6.9143,-6.9049,-6.927,-6.9269,-6.927,-6.9372,-6.9374,-6.9376,-6.9344,-6.934,-6.9337,-6.9334,-6.9431,-6.9438,-6.9445,-6.9552,0,0,-6.9466,-6.9469,0,0,0,0,0,0,0,0,-6.9138,-6.9152,-6.9268,-6.927,-6.9271,-6.9342,-6.933,-6.9434,-6.9345,-6.9316,-6.9336,-6.9333,-6.9406,-6.9415,-6.9441,-6.9556,-6.956,-6.9466,-6.9471,-6.9473,-6.9475,0,0,0,0,0,0,0,-6.9131,-6.9147,-6.9311,-6.927,-6.9272,-6.9262,-6.9273,-6.9349,-6.9377,-6.9318,-6.9316,-6.9329,-6.9406,-6.9434,-6.9443,-6.9562,-6.9466,-6.9472,-6.9477,-6.9479,-6.9771,-6.9775,0,0,0,0,0,0,-6.9124,-6.9141,-6.9307,-6.9314,-6.9195,-6.9269,-6.9281,-6.9322,-6.9376,-6.9382,-6.9331,-6.9327,-6.9424,-6.9435,-6.9446,-6.9576,-6.9473,-6.948,-6.9484,-6.9768,-6.9772,-6.9776,0,0,0,0,0,0,-6.9119,-6.9139,-6.9303,-6.9227,-6.9247,-6.9276,-6.9323,-6.9326,-6.9354,-6.9387,-6.9391,-6.9355,-6.9422,-6.9436,-6.9526,-6.9579,-6.9483,-6.9489,-6.9764,-6.9769,-6.9774,-6.9836,0,0,0,0,0,0,-6.9113,-6.9137,-6.9179,-6.9229,-6.9252,-6.9384,-6.9326,-6.933,-6.9367,-6.9362,-6.941,-6.9415,-6.942,-6.9516,-6.9533,-6.9586,-6.9495,-6.9759,-6.9766,-6.9773,-6.9829,-6.9842,-6.9854,0,0,0,0,0,-6.9105,-6.9191,-6.9182,-6.9202,-6.9305,-6.9387,-6.94,-6.9406,-6.9371,-6.9413,-6.9434,-6.9414,-6.957,-6.9526,-6.9545,-6.9601,-6.9756,-6.9764,-6.9772,-6.9823,-6.984,-6.9854,0,0,0,0,0,0,-6.9144,-6.9197,-6.9188,-6.9293,-6.9336,-6.9381,-6.9434,-6.9423,-6.9475,-6.9468,-6.9471,-6.9482,-6.9575,-6.9597,-6.9546,-6.9708,-6.9658,-6.967,-6.969,-6.9706,-6.9718,-6.9711,-6.95,0,0,0,0,0,-6.9166,-6.923,-6.9272,-6.936,-6.9383,-6.9405,-6.9441,-6.9442,-6.9486,-6.9503,-6.9531,-6.9573,-6.9631,-6.967,-6.9725,-6.9832,-6.9842,-6.988,-6.9892,-6.9902,-6.9913,-6.9972,-6.9989,-6.9803,-6.9803,-6.9803,0,0,-6.921,-6.9247,-6.9286,-6.9369,-6.9403,-6.9468,-6.942,-6.949,-6.9538,-6.9513,-6.9601,-6.9623,-6.9669,-6.9769,-6.9814,-6.979,-6.9967,-6.9913,-6.9921,-6.9926,-6.9982,-6.9999,-7.0015,-6.9808,-6.9807,-6.9807,0,0,-6.9324,-6.9358,-6.9437,-6.9472,-6.9525,-6.9539,-6.9558,-6.9606,-6.9621,-6.9709,-6.9692,-6.9748,-6.9849,-6.9883,-6.9914,-7.0043,-7.0026,-7.0061,-7.0126,-7.0183,-7.0198,-7.0211,-7.0257,-7.0274,-7.0071,-7.0071,-7.0072,0,-6.9371,-6.947,-6.9477,-6.955,-6.9587,-6.9571,-6.9649,-6.9682,-6.9749,-6.9775,-6.9747,-6.9875,-6.9905,-7.0013,-7.0045,-7.007,-7.0091,-7.0055,-7.0195,-7.0208,-7.0221,-7.0265,-7.0282,-7.0075,-7.0075,-7.0075,-7.0074,0,-6.9526,-6.9595,-6.9652,-6.9721,-6.9764,-6.9839,-6.9856,-6.9899,-6.9897,-6.9914,-7.0004,-7.004,-7.0104,-7.0129,-7.0126,-7.0237,-7.022,-7.0194,-7.0144,-7.0242,-7.0284,-7.0301,-7.0081,-7.008,-7.0078,-7.0077,0,0,-6.9666,-6.974,-6.9761,-6.9793,-6.985,-6.9903,-6.9977,-7.0042,-7.0078,-7.0125,-7.0187,-7.0274,-7.0251,-7.0286,-7.0287,-7.0337,-7.0438,-7.0305,-7.0306,-7.0329,-7.0562,-7.0582,-7.0601,-7.0427,-7.0431,-7.0433,-7.0558,0,-6.9785,-6.9919,-6.9929,-7.0048,-7.0112,-7.0098,-7.0163,-7.0204,-7.0223,-7.0278,-7.0297,-7.0359,-7.0323,-7.0345,-7.0394,-7.0415,-7.0485,-7.0406,-7.0484,-7.0486,-7.0473,-7.0623,-7.0644,-7.076,-7.0575,-7.0577,-7.0579,0,-6.9942,-6.9997,-7.0124,-7.0175,-7.0202,-7.026,-7.0321,-7.0374,-7.0421,-7.043,-7.0471,-7.0466,-7.0541,-7.0488,-7.0592,-7.0538,-7.057,-7.0586,-7.059,-7.0598,-7.0539,-7.0634,-7.0797,-7.0815,-7.0605,-7.0603,-7.0601,0,-7.0032,-7.0138,-7.0228,-7.0255,-7.0316,-7.0358,-7.0384,-7.0428,-7.0467,-7.0519,-7.0544,-7.0604,-7.0636,-7.0682,-7.0692,-7.0653,-7.0795,-7.0744,-7.0805,-7.0804,-7.0835,-7.0833,-7.1005,-7.0856,-7.0855,-7.0855,-7.0855,0,-7.0164,-7.0242,-7.027,-7.0325,-7.0413,-7.0422,-7.0508,-7.0532,-7.0571,-7.063,-7.062,-7.0675,-7.0686,-7.0742,-7.0751,-7.0835,-7.0849,-7.0859,-7.086,-7.086,-7.0859,-7.0881,-7.0873,-7.086,-7.0859,-7.0858,-7.0857,0,-7.028,-7.0301,-7.0399,-7.045,-7.0464,-7.0526,-7.0569,-7.0621,-7.0639,-7.0714,-7.0731,-7.0759,-7.0825,-7.0841,-7.0918,-7.0924,-7.1024,-7.1018,-7.101,-7.1009,-7.1069,-7.1064,-7.1262,-7.1289,-7.1121,-7.1123,-7.1124,0,-7.0362,-7.0423,-7.0481,-7.0521,-7.0551,-7.0615,-7.0656,-7.0667,-7.0709,-7.0768,-7.0814,-7.088,-7.0933,-7.104,-7.1065,-7.1125,-7.112,-7.1185,-7.1129,-7.1127,-7.1121,-7.1118,-7.1124,-7.1196,-7.1198,-7.1199,-7.12,0,-7.0507,-7.0516,-7.0576,-7.064,-7.0689,-7.074,-7.0788,-7.082,-7.0839,-7.0886,-7.0956,-7.0998,-7.1079,-7.1145,-7.1205,-7.123,-7.1219,-7.1218,-7.1236,-7.1236,-7.1229,-7.1234,-7.1039,-7.1214,-7.1212,-7.1211,-7.1211,-7.121,-7.0609,-7.0663,-7.0713,-7.0781,-7.0819,-7.0864,-7.0917,-7.0943,-7.1002,-7.1071,-7.1074,-7.1149,-7.1195,-7.1276,-7.1305,-7.1363,-7.1343,-7.1367,-7.1374,-7.138,-7.1386,-7.1221,-7.1374,-7.1374,-7.1373,-7.1373,-7.1373,0,-7.0754,-7.0787,-7.0849,-7.0918,-7.0971,-7.0958,-7.1011,-7.1055,-7.1123,-7.1167,-7.1221,-7.1301,-7.1365,-7.1397,-7.146,-7.15,-7.1496,-7.1516,-7.1513,-7.152,-7.14,-7.1379,-7.1519,-7.1519,-7.1519,-7.1519,-7.1519,-7.1518,-7.0836,-7.0927,-7.0941,-7.105,-7.1081,-7.1158,-7.1189,-7.1231,-7.1267,-7.1358,-7.1412,-7.1433,-7.1473,-7.1539,-7.1596,-7.1604,-7.1627,-7.165,-7.1655,-7.1543,-7.1528,-7.1514,-7.1494,-7.1655,-7.1655,-7.177,-7.1771,-7.1771]}]]